[[{"header":{"parameterUnit":"m.s-1","parameterCategory":1,"la1":30.2992,"la2":30.254,"lo1":-89.0895,"lo2":-89.0443,"dy":0.0025,"dx":0.0025,"nx":19,"ny":19,"refTime":"2026-04-02T09:00:00:Z","depth":0,"parameterNumber":2,"parameterNumberName":"U-component_of_WINDS"},"data":[0,0,0,-4.7247,-4.7249,-4.731,-4.731,-4.7407,-4.7408,0,0,0,0,0,0,0,0,0,0,0,-4.724,-4.7241,-4.7247,-4.7249,-4.731,-4.731,-4.7407,-4.7408,0,0,0,0,0,0,0,0,0,0,0,-4.724,-4.7241,-4.7242,-4.7249,-4.731,-4.731,-4.7407,-4.7354,0,0,0,0,0,0,0,0,0,0,-4.7291,-4.7296,-4.7241,-4.7242,-4.7249,-4.731,-4.731,-4.7351,-4.7357,-4.7388,0,-4.7417,0,-4.7415,-4.7416,-4.7416,0,0,0,-4.724,-4.7291,-4.7297,-4.7242,-4.725,-4.731,-4.728,-4.7354,-4.7361,-4.7396,-4.7419,-4.7422,-4.7416,-4.7417,-4.7417,-4.762,-4.7622,0,0,-4.7237,-4.7257,-4.7292,-4.7302,-4.7294,-4.7278,-4.7282,-4.7358,-4.7384,-4.7419,-4.7424,-4.7418,-4.7417,-4.7418,-4.7619,-4.7621,0,0,0,-4.7233,-4.7255,-4.7259,-4.7299,-4.7308,-4.728,-4.7284,-4.7381,-4.738,-4.7424,-4.7419,-4.7418,-4.7419,-4.7617,-4.762,-4.7704,0,0,0,-4.723,-4.7253,-4.7258,-4.7271,-4.7307,-4.7345,-4.7306,-4.7375,-4.7383,-4.7418,-4.7418,-4.7421,-4.7616,-4.7619,-4.7698,-4.774,0,0,0,-4.7232,-4.7253,-4.7266,-4.7272,-4.7299,-4.7344,-4.7347,-4.7376,-4.738,-4.7416,-4.7421,-4.7615,-4.7618,-4.7693,-4.7731,-4.7797,0,0,0,-4.724,-4.734,-4.7267,-4.7377,-4.7299,-4.7396,-4.7347,-4.7418,-4.746,-4.7419,-4.7616,-4.7619,-4.7692,-4.7726,-4.7792,-4.7855,-4.7883,0,0,-4.7377,-4.7357,-4.7421,-4.7357,-4.7472,-4.7385,-4.7513,-4.7532,-4.7517,-4.7587,-4.7592,-4.77,-4.7731,-4.7796,-4.8042,-4.8064,0,0,0,-4.7471,-4.7516,-4.7542,-4.7583,-4.76,-4.7618,-4.7616,-4.7623,-4.7681,-4.7557,-4.7743,-4.776,-4.7798,-4.7827,-4.7846,-4.7876,-4.7634,-4.7634,-4.7634,-4.7692,-4.7668,-4.7771,-4.7755,-4.7796,-4.7793,-4.7823,-4.7832,-4.7797,-4.7841,-4.786,-4.8012,-4.8047,-4.8061,-4.8093,-4.7894,-4.7894,-4.7895,-4.7895,-4.7889,-4.7948,-4.7901,-4.7982,-4.7958,-4.8026,-4.8029,-4.8002,-4.8062,-4.7995,-4.8027,-4.7954,-4.8087,-4.8113,-4.7901,-4.79,-4.7899,-4.7899,-4.7898,-4.8028,-4.8052,-4.8061,-4.8117,-4.8164,-4.8145,-4.8206,-4.8182,-4.8159,-4.8191,-4.8208,-4.8207,-4.82,-4.8202,-4.8202,-4.8203,-4.8203,-4.8204,-4.8204,-4.8168,-4.8175,-4.8228,-4.8257,-4.828,-4.8307,-4.8308,-4.833,-4.8348,-4.8325,-4.8325,-4.8285,-4.8105,-4.8059,-4.8212,-4.821,-4.8209,-4.8209,-4.8208,-4.8371,-4.8322,-4.8404,-4.8428,-4.8459,-4.8507,-4.8477,-4.8525,-4.854,-4.857,-4.8525,-4.8397,-4.8374,-4.8358,-4.8319,-4.853,-4.853,-4.853,-4.853,-4.8486,-4.8474,-4.8552,-4.8591,-4.8627,-4.8609,-4.8703,-4.8706,-4.87,-4.8708,-4.8675,-4.8623,-4.8608,-4.8594,-4.8573,-4.8536,-4.8798,-4.8798,-4.8799,-4.8608,-4.8599,-4.8682,-4.8677,-4.8701,-4.8722,-4.8809,-4.8856,-4.884,-4.8809,-4.8713,-4.8702,-4.8618,-4.8592,-4.8554,-4.8523,-4.8455,0,0]},{"header":{"parameterUnit":"m.s-1","parameterCategory":1,"la1":30.2992,"la2":30.254,"lo1":-89.0895,"lo2":-89.0443,"dy":0.0025,"dx":0.0025,"nx":19,"ny":19,"refTime":"2026-04-02T09:00:00:Z","depth":0,"parameterNumber":3,"parameterNumberName":"V-component_of_WINDS"},"data":[0,0,0,3.0811,3.0814,3.0955,3.0955,3.1105,3.1106,0,0,0,0,0,0,0,0,0,0,0,3.0752,3.0753,3.0811,3.0814,3.0954,3.0955,3.1105,3.1106,0,0,0,0,0,0,0,0,0,0,0,3.0752,3.0753,3.0753,3.0815,3.0954,3.0955,3.1105,3.1009,0,0,0,0,0,0,0,0,0,0,3.0878,3.0807,3.0753,3.0753,3.0815,3.0954,3.0955,3.1005,3.1015,3.1029,0,3.1038,0,3.1074,3.1115,3.1115,0,0,0,3.0827,3.0798,3.0852,3.0753,3.0816,3.0954,3.0895,3.1011,3.1022,3.1042,3.104,3.1046,3.1077,3.1115,3.1116,3.1159,3.1158,0,0,3.0819,3.0768,3.0844,3.0858,3.0836,3.089,3.0899,3.1018,3.1012,3.1041,3.105,3.1079,3.1116,3.1117,3.1159,3.1158,0,0,0,3.0788,3.0762,3.0814,3.0851,3.0879,3.0894,3.0904,3.1007,3.1028,3.1052,3.1081,3.1117,3.1118,3.1159,3.1159,3.1092,0,0,0,3.0784,3.0744,3.0809,3.078,3.0876,3.0945,3.0889,3.102,3.1035,3.108,3.1117,3.112,3.116,3.1159,3.1095,3.1069,0,0,0,3.0749,3.074,3.0755,3.0777,3.0835,3.0944,3.0973,3.1024,3.1052,3.1115,3.112,3.116,3.1159,3.1097,3.1073,3.1067,0,0,0,3.0697,3.0691,3.0753,3.0758,3.0834,3.0901,3.0972,3.1025,3.1071,3.1117,3.116,3.1159,3.1098,3.1076,3.1069,3.1054,3.1042,0,0,3.0661,3.0685,3.0692,3.0752,3.0796,3.0884,3.0919,3.1008,3.1059,3.1122,3.1124,3.1094,3.1073,3.1068,3.0992,3.0982,0,0,0,3.0664,3.0669,3.0692,3.0734,3.0804,3.0862,3.0952,3.0985,3.1042,3.1082,3.1091,3.108,3.1079,3.1074,3.1065,3.1068,3.1154,3.1154,3.1154,3.0541,3.0609,3.0627,3.0712,3.0752,3.0847,3.0886,3.0947,3.1002,3.1003,3.1023,3.0969,3.0961,3.0955,3.0957,3.1019,3.1019,3.1018,3.1018,3.0497,3.0516,3.0592,3.0636,3.0708,3.0745,3.0836,3.0874,3.092,3.0959,3.0961,3.0999,3.0942,3.0948,3.1014,3.1015,3.1015,3.1016,3.1016,3.0426,3.0447,3.0489,3.056,3.0606,3.0692,3.0733,3.0797,3.0856,3.0858,3.0887,3.0889,3.0899,3.0867,3.0867,3.0867,3.0867,3.0867,3.0867,3.0336,3.0385,3.0413,3.0488,3.0525,3.0582,3.0677,3.0715,3.0773,3.0816,3.0817,3.0872,3.0924,3.0936,3.0864,3.0865,3.0865,3.0865,3.0865,3.0269,3.0295,3.0337,3.0374,3.0469,3.0511,3.0592,3.0664,3.0705,3.0723,3.0779,3.0806,3.0834,3.0842,3.0853,3.0763,3.0763,3.0763,3.0763,3.021,3.0231,3.029,3.0346,3.0407,3.0485,3.0532,3.0606,3.0687,3.0716,3.0738,3.0757,3.0761,3.0788,3.0796,3.0807,3.0708,3.0708,3.0708,3.0174,3.0204,3.0231,3.0312,3.0391,3.0457,3.0504,3.0564,3.0661,3.0708,3.0741,3.0743,3.0775,3.0782,3.083,3.0841,3.0863,0,0]}]]